Погода в Строителе

Россия / Московская область     55°35′37″N   35°53′05″E
темп.,
°C
ветер,
м/с
пор.,
м/с
влажн.,
%
обл.,
%
осадки,
мм/ч
давл.,
гПа
погр.,
м
8 марта, пн
пн800:00−6з5128966 0.4 997761
03:00−8зюз4119355 0.4 996385
06:00−7з51289100 0.3 997866
09:00−9зсз6118785 0.4 999804
12:00−7сз5784100 0.1 1003779
15:00−6сз4680100 0.1 1005933
18:00−7ссз379299 0.1 1007355
21:00−10с379589 0.2 1010190
9 марта, вт
вт900:00−13ссз239776 0.0 101268
03:00−16ссз339780 0.1 101474
06:00−17ссз349876 0.0 101582
09:00−16ссз379577 0.0 1017284
12:00−13ссз468683 0.0 1018510
15:00−12ссз478382 0.0 1019657
18:00−14ссз369080 0.0 1020158
21:00−18с239540 0.0 102333
10 марта, ср
ср1000:00−20ссз23970 0.0 102533
03:00−22ссз23980 0.0 102628
06:00−23с23980 0.0 102841
09:00−22ссв25940 0.0 1029226
12:00−17ссв24753 0.0 1030501
15:00−14ссв24661 0.0 1030765
18:00−17с12820 0.0 103020
21:00−20ссз22900 0.0 103220
11 марта, чт
чт1100:00−21сз12900 0.0 103320
03:00−21сз11850 0.0 103420
06:00−21з11830 0.0 103420
09:00−18зюз12791 0.0 103578
12:00−12ююз12690 0.0 1033359
15:00−9ю23660 0.0 1033621
18:00−12ю33840 0.0 103141
21:00−16ю34900 0.0 103270
12 марта, пт
пт1200:00−18ю37890 0.0 1032130
03:00−19ю48860 0.0 1031171
06:00−20ю48880 0.0 1030176
09:00−17ю510915 0.0 1028276
12:00−11ю6108757 0.0 1026431
15:00−7ю7128229 0.0 1024654
18:00−9ю714850 0.0 1022600
21:00−9ю7158750 0.0 1022714